sat.trackr.live / text

‹ back to catalog

ONEWEB-0133

NORAD 47279 · 2020-100X

PAYLOAD ACTIVE UNKNOWN

§ Identity

Operator
Country
UK
Launch date
2020-12-18
Launch site
VOSTO
Launch vehicle
Mass (kg)
RCS (m²)

Purposes: comms

External: N2YO · Heavens-Above · Gunter

§ Orbital elements

Epoch: 2026-09-20T03:32:12.615072Z

Period
109.72 min
Inclination
87.8989°
Eccentricity
0.0001942
Mean motion
13.12442877 rev/d
Perigee alt
1,212.2 km
Apogee alt
1,215.2 km
Semi-major
7,591.9 km
B*
-1.1904e-3
RAAN
331.8034°
Arg perigee
94.2683°
Mean anomaly
265.8667°
Rev number
27,719

§ Raw data

ONEWEB-01331 47279U 20100X   26263.14736823 -.00000416  00000+0 -11904-2 0  99942 47279  87.8989 331.8034 0001942  94.2683 265.8667 13.12442877277195

JSON: /api/v1/satellites/47279 · /tle

For live sub-satellite position, see the globe view (requires WebGL).

§ Visibility from observer

Set your observer location to see the next 7 days of passes ≥ 10°. The values pass through the URL so the page stays shareable.

No JS? Fill the form by hand. The geolocation button needs JavaScript.